EW4092 Weather Reports


Display with metric or nautical units.
time (UTC)temp
F
wind
direction
speed
MPH
gust
MPH
rain 1hr
in
rain 24hr
in
rain mn
in
humidity
%
barometer
mb
20260507020033 74 103 9.0 22.0 0.00 0.00 0.00 28 1012.9
20260507014529 74 103 10.0 20.0 0.00 0.00 0.00 28 1012.8
20260507013035 74 120 6.0 15.0 0.00 0.00 0.00 28 1012.7
20260507011536 74 119 7.0 17.0 0.00 0.00 0.00 29 1012.7
20260507010028 75 82 9.0 15.0 0.00 0.00 0.00 29 1012.7
20260507004525 75 110 6.0 10.0 0.00 0.00 0.00 30 1012.7
20260507003025 75 94 7.0 14.0 0.00 0.00 0.00 31 1012.6
20260507001526 76 86 9.0 15.0 0.00 0.00 0.00 30 1012.5
20260507000024 77 103 7.0 14.0 0.00 0.00 0.00 30 1012.3
20260506234530 77 89 5.0 10.0 0.00 0.00 0.00 30 1012.1
20260506233023 78 93 8.0 17.0 0.00 0.00 0.00 29 1012.0
20260506231524 79 82 7.0 12.0 0.00 0.00 0.00 28 1012.0
20260506230022 80 77 6.0 16.0 0.00 0.00 0.00 26 1012.0
20260506224527 81 77 4.0 13.0 0.00 0.00 0.00 26 1012.1
20260506223021 82 125 7.0 17.0 0.00 0.00 0.00 26 1012.2
20260506221520 82 105 8.0 14.0 0.00 0.00 0.00 26 1012.2
20260506220020 84 77 8.0 20.0 0.00 0.00 0.00 26 1012.0
20260506214519 84 121 6.0 12.0 0.00 0.00 0.00 25 1012.0
20260506213021 86 119 7.0 13.0 0.00 0.00 0.00 23 1011.9
20260506211518 87 134 5.0 10.0 0.00 0.00 0.00 23 1011.8
20260506210020 87 84 4.0 10.0 0.00 0.00 0.00 24 1011.9
20260506204516 87 203 2.0 11.0 0.00 0.00 0.00 23 1011.8
20260506203015 87 94 4.0 9.0 0.00 0.00 0.00 24 1012.0
20260506201518 86 115 3.0 8.0 0.00 0.00 0.00 26 1012.0
20260506200012 85 115 2.0 7.0 0.00 0.00 0.00 28 1012.1
20260506194508 84 112 1.0 4.0 0.00 0.00 0.00 28 1012.1
20260506193009 84 71 3.0 6.0 0.00 0.00 0.00 28 1012.4
20260506191506 84 79 1.0 5.0 0.00 0.00 0.00 29 1012.5
20260506190004 83 129 0.0 5.0 0.00 0.00 0.00 30 1012.4
20260506184502 82 108 0.0 5.0 0.00 0.00 0.00 28 1012.5
20260506183111 82 155 1.0 5.0 0.00 0.00 0.00 29 1012.6
20260506181601 81 120 3.0 9.0 0.00 0.00 0.00 31 1012.8
20260506180057 81 126 2.0 4.0 0.00 0.00 0.00 33 1012.8
20260506174606 79 73 0.0 3.0 0.00 0.00 0.00 35 1012.9
20260506173055 79 235 0.0 3.0 0.00 0.00 0.00 35 1013.0
20260506171547 79 331 2.0 5.0 0.00 0.00 0.00 38 1013.0
20260506170046 77 114 1.0 4.0 0.00 0.00 0.00 36 1013.1
20260506164547 76 149 0.0 7.0 0.00 0.00 0.00 37 1013.1
20260506163055 75 76 0.0 4.0 0.00 0.00 0.00 39 1013.2
20260506161537 75 98 1.0 3.0 0.00 0.00 0.00 41 1013.4
20260506160035 74 350 2.0 7.0 0.00 0.00 0.00 42 1013.6
20260506154536 73 94 0.0 6.0 0.00 0.00 0.00 43 1013.5
20260506153031 72 92 3.0 7.0 0.00 0.00 0.00 42 1013.7
20260506151528 70 152 1.0 7.0 0.00 0.00 0.00 45 1013.7
20260506150019 67 63 0.0 1.0 0.00 0.00 0.00 49 1013.8
20260506144516 64 64 0.0 2.0 0.00 0.00 0.00 54 1013.9
20260506143015 63 66 0.0 2.0 0.00 0.00 0.00 54 1013.8
20260506141513 61 68 0.0 1.0 0.00 0.00 0.00 55 1013.7
20260506140019 58 44 2.0 5.0 0.00 0.00 0.00 59 1013.9
20260506134511 57 256 1.0 2.0 0.00 0.00 0.00 63 1013.5
20260506133011 54 79 0.0 1.0 0.00 0.00 0.00 68 1013.4
20260506131517 52 77 0.0 1.0 0.00 0.00 0.00 70 1013.4
20260506130007 51 74 0.0 1.0 0.00 0.00 0.00 71 1013.1
20260506124505 50 73 0.0 1.0 0.00 0.00 0.00 71 1012.9
20260506123008 50 70 0.0 1.0 0.00 0.00 0.00 71 1013.0
20260506121503 51 70 0.0 1.0 0.00 0.00 0.00 71 1013.0
20260506120001 51 70 0.0 2.0 0.00 0.00 0.00 70 1012.9
20260506114559 51 173 0.0 3.0 0.00 0.00 0.00 70 1012.8
20260506113058 51 58 0.0 2.0 0.00 0.00 0.00 70 1012.8
20260506111558 51 58 0.0 2.0 0.00 0.00 0.00 69 1012.6
20260506104552 52 77 0.0 0.0 0.00 0.00 0.00 69 1012.4
20260506103049 52 78 0.0 0.0 0.00 0.00 0.00 69 1012.3
20260506101554 53 77 0.0 1.0 0.00 0.00 0.00 67 1012.3
20260506100041 55 78 0.0 1.0 0.00 0.00 0.00 64 1012.2
20260506094540 60 78 0.0 3.0 0.00 0.00 0.00 55 1012.3
20260506093043 62 110 1.0 5.0 0.00 0.00 0.00 52 1012.3
20260506091539 57 98 0.0 0.0 0.00 0.00 0.00 64 1012.3
20260506090044 56 108 0.0 2.0 0.00 0.00 0.00 66 1012.2
20260506084542 57 46 0.0 1.0 0.00 0.00 0.00 64 1012.1
20260506083033 58 45 0.0 0.0 0.00 0.00 0.00 63 1012.2
20260506081535 57 46 0.0 0.0 0.00 0.00 0.00 63 1012.1
20260506073019 63 98 0.0 1.0 0.00 0.00 0.00 50 1011.9
20260506071519 64 110 0.0 1.0 0.00 0.00 0.00 48 1011.9
20260506061511 69 114 0.0 2.0 0.00 0.00 0.00 39 1011.6
20260506044514 74 193 1.0 8.0 0.00 0.00 0.00 32 1011.2
20260506043006 74 193 2.0 5.0 0.00 0.00 0.00 33 1011.0
20260506041505 74 128 0.0 3.0 0.00 0.00 0.00 37 1010.8
20260506040003 75 132 1.0 4.0 0.00 0.00 0.00 34 1010.5
20260506034503 77 113 1.0 4.0 0.00 0.00 0.00 30 1010.3
20260506033001 77 92 0.0 1.0 0.00 0.00 0.00 28 1010.1
20260506031501 78 78 0.0 3.0 0.00 0.00 0.00 31 1010.0
20260506030001 80 307 0.0 4.0 0.00 0.00 0.00 30 1009.8
20260506024609 81 33 0.0 4.0 0.00 0.00 0.00 29 1009.6
20260506023112 82 260 1.0 5.0 0.00 0.00 0.00 28 1009.4
20260506021603 82 38 0.0 6.0 0.00 0.00 0.00 27 1009.4